• In Hungary
  • List of Countries
  • For 7 days
  • Water Temperature
  • Satellite Maps
  • Weather Map
  • News
  • Weather Widgets
  • user-avatar
    Login

    Hourly Weather Stantsiine

    Today, 21 February, Wednesday

    Time Temperature Precipitation Wind Pressure Humidity
    00:00 -2°C° 0 mm 8 mps 761 mmHg 77%
    01:00 -2°C° 0 mm 8 mps 760 mmHg 78%
    02:00 -4°C° 0 mm 8 mps 760 mmHg 79%
    03:00 -4°C° 0 mm 8 mps 760 mmHg 79%
    04:00 -4°C° 0 mm 8 mps 760 mmHg 80%
    05:00 -4°C° 0 mm 8 mps 760 mmHg 81%
    06:00 -2°C° 0 mm 8 mps 760 mmHg 80%
    07:00 -2°C° 0 mm 8 mps 760 mmHg 79%
    08:00 -3°C° 0 mm 9 mps 759 mmHg 79%
    09:00 -1°C° 0 mm 9 mps 759 mmHg 77%
    10:00 -1°C° 0 mm 9 mps 759 mmHg 75%
    11:00 0°C° 0 mm 8 mps 759 mmHg 73%
    12:00 0°C° 0 mm 8 mps 759 mmHg 72%
    13:00 0°C° 0 mm 8 mps 759 mmHg 71%
    14:00 +1°C° 0 mm 8 mps 759 mmHg 71%
    15:00 0°C° 0 mm 8 mps 758 mmHg 72%
    16:00 0°C° 0 mm 8 mps 758 mmHg 73%
    17:00 -1°C° 0 mm 8 mps 758 mmHg 74%
    18:00 -1°C° 0 mm 8 mps 758 mmHg 76%
    19:00 -1°C° 0 mm 8 mps 758 mmHg 78%
    20:00 -1°C° 0 mm 8 mps 758 mmHg 80%
    21:00 -1°C° 0 mm 8 mps 758 mmHg 82%
    22:00 -1°C° 0 mm 8 mps 758 mmHg 84%
    23:00 -2°C° 0 mm 8 mps 758 mmHg 86%

    Tomorrow, 22 February, Thursday

    Time Temperature Precipitation Wind Pressure Humidity
    00:00 -2°C° 0 mm 8 mps 758 mmHg 87%
    01:00 -2°C° 0 mm 8 mps 758 mmHg 89%
    02:00 -2°C° 0 mm 7 mps 758 mmHg 91%
    03:00 -2°C° 0 mm 8 mps 757 mmHg 91%
    04:00 -2°C° 0 mm 8 mps 757 mmHg 91%
    05:00 -2°C° 0 mm 8 mps 757 mmHg 92%
    06:00 -2°C° 0 mm 8 mps 757 mmHg 91%
    07:00 -1°C° 0 mm 7 mps 757 mmHg 90%
    08:00 -1°C° 0 mm 7 mps 757 mmHg 89%
    09:00 -1°C° 0 mm 7 mps 757 mmHg 86%
    10:00 0°C° 0 mm 7 mps 757 mmHg 84%
    11:00 0°C° 0 mm 7 mps 757 mmHg 81%
    12:00 +1°C° 0 mm 8 mps 757 mmHg 81%
    13:00 +1°C° 0 mm 8 mps 757 mmHg 80%
    14:00 +1°C° 0 mm 8 mps 757 mmHg 80%
    15:00 0°C° 0 mm 8 mps 757 mmHg 82%
    16:00 0°C° 0 mm 8 mps 757 mmHg 84%
    17:00 -1°C° 0 mm 8 mps 757 mmHg 86%
    18:00 -1°C° 0 mm 8 mps 757 mmHg 87%
    19:00 -1°C° 0 mm 8 mps 757 mmHg 88%
    20:00 -1°C° 0 mm 9 mps 757 mmHg 88%
    21:00 -1°C° 0 mm 9 mps 757 mmHg 89%
    22:00 -1°C° 0 mm 9 mps 757 mmHg 89%
    23:00 -1°C° 0 mm 9 mps 757 mmHg 90%

    Day after tomorrow, 23 February, Friday

    Time Temperature Precipitation Wind Pressure Humidity
    00:00 -1°C° 0.1 mm 8 mps 757 mmHg 90%
    01:00 -1°C° 0.1 mm 8 mps 756 mmHg 91%
    02:00 -1°C° 0.1 mm 8 mps 756 mmHg 91%
    03:00 -1°C° 0.6 mm 8 mps 756 mmHg 91%
    04:00 -1°C° 0.6 mm 8 mps 756 mmHg 92%
    05:00 -1°C° 0.6 mm 8 mps 756 mmHg 92%
    06:00 -1°C° 0.9 mm 8 mps 756 mmHg 92%
    07:00 -1°C° 0.9 mm 8 mps 756 mmHg 92%
    08:00 -1°C° 0.9 mm 8 mps 756 mmHg 92%
    09:00 -1°C° 0.3 mm 8 mps 756 mmHg 90%
    10:00 -1°C° 0.3 mm 8 mps 756 mmHg 89%
    11:00 0°C° 0.3 mm 8 mps 756 mmHg 88%
    12:00 0°C° 0 mm 8 mps 756 mmHg 87%
    13:00 -1°C° 0 mm 8 mps 756 mmHg 86%
    14:00 -1°C° 0 mm 8 mps 756 mmHg 85%
    15:00 -1°C° 0 mm 8 mps 756 mmHg 85%
    16:00 -2°C° 0 mm 8 mps 757 mmHg 86%
    17:00 -2°C° 0 mm 8 mps 757 mmHg 86%
    18:00 -2°C° 0 mm 8 mps 757 mmHg 86%
    19:00 -4°C° 0 mm 8 mps 757 mmHg 86%
    20:00 -3°C° 0 mm 7 mps 758 mmHg 86%
    21:00 -3°C° 0 mm 7 mps 758 mmHg 86%
    22:00 -3°C° 0 mm 7 mps 758 mmHg 86%
    23:00 -3°C° 0 mm 6 mps 758 mmHg 86%

    24 February, Saturday

    Time Temperature Precipitation Wind Pressure Humidity
    00:00 -3°C° 0 mm 6 mps 758 mmHg 86%
    01:00 -4°C° 0 mm 6 mps 758 mmHg 86%
    02:00 -4°C° 0 mm 6 mps 758 mmHg 86%
    03:00 -4°C° 0 mm 5 mps 757 mmHg 85%
    04:00 -4°C° 0 mm 5 mps 757 mmHg 85%
    05:00 -4°C° 0 mm 5 mps 757 mmHg 84%
    06:00 -3°C° 0 mm 4 mps 757 mmHg 83%
    07:00 -3°C° 0 mm 4 mps 757 mmHg 82%
    08:00 -2°C° 0 mm 3 mps 758 mmHg 80%
    09:00 -1°C° 0 mm 3 mps 757 mmHg 78%
    10:00 -1°C° 0 mm 3 mps 757 mmHg 75%
    11:00 +1°C° 0 mm 2 mps 757 mmHg 73%
    12:00 +1°C° 0 mm 2 mps 757 mmHg 71%
    13:00 +2°C° 0 mm 2 mps 757 mmHg 69%
    14:00 +2°C° 0 mm 2 mps 756 mmHg 67%
    15:00 +2°C° 0 mm 2 mps 756 mmHg 69%
    16:00 +2°C° 0 mm 2 mps 756 mmHg 70%
    17:00 +1°C° 0 mm 2 mps 756 mmHg 72%
    18:00 +1°C° 0 mm 2 mps 757 mmHg 74%
    19:00 +1°C° 0 mm 2 mps 757 mmHg 75%
    20:00 +1°C° 0 mm 2 mps 757 mmHg 77%
    21:00 -1°C° 0 mm 2 mps 757 mmHg 78%
    22:00 -1°C° 0 mm 2 mps 757 mmHg 79%
    23:00 -2°C° 0 mm 3 mps 757 mmHg 80%

    25 February, Sunday

    Time Temperature Precipitation Wind Pressure Humidity
    00:00 -2°C° 0 mm 3 mps 757 mmHg 79%
    01:00 -2°C° 0 mm 3 mps 757 mmHg 79%
    02:00 -3°C° 0 mm 4 mps 757 mmHg 79%
    03:00 -3°C° 0 mm 4 mps 757 mmHg 80%
    04:00 -4°C° 0 mm 5 mps 757 mmHg 81%
    05:00 -4°C° 0 mm 5 mps 757 mmHg 83%
    06:00 -4°C° 0 mm 5 mps 757 mmHg 80%
    07:00 -4°C° 0 mm 6 mps 758 mmHg 78%
    08:00 -4°C° 0 mm 6 mps 758 mmHg 75%
    09:00 -4°C° 0 mm 6 mps 758 mmHg 70%
    10:00 -2°C° 0 mm 5 mps 758 mmHg 66%
    11:00 -2°C° 0 mm 5 mps 758 mmHg 61%
    12:00 -2°C° 0 mm 5 mps 758 mmHg 60%
    13:00 -2°C° 0 mm 5 mps 757 mmHg 60%
    14:00 -2°C° 0 mm 5 mps 757 mmHg 59%
    15:00 -3°C° 0 mm 6 mps 758 mmHg 62%
    16:00 -3°C° 0 mm 6 mps 758 mmHg 66%
    17:00 -4°C° 0 mm 6 mps 758 mmHg 69%
    18:00 -4°C° 0 mm 7 mps 758 mmHg 74%
    19:00 -4°C° 0 mm 7 mps 758 mmHg 78%
    20:00 -4°C° 0 mm 7 mps 758 mmHg 82%
    21:00 -6°C° 0 mm 7 mps 758 mmHg 82%
    22:00 -6°C° 0 mm 7 mps 758 mmHg 81%
    23:00 -6°C° 0 mm 8 mps 758 mmHg 80%

    26 February, Monday

    Time Temperature Precipitation Wind Pressure Humidity
    00:00 -6°C° 0 mm 8 mps 758 mmHg 79%
    01:00 -7°C° 0 mm 8 mps 758 mmHg 78%
    02:00 -7°C° 0 mm 8 mps 759 mmHg 77%
    03:00 -7°C° 0 mm 8 mps 759 mmHg 76%
    04:00 -8°C° 0 mm 9 mps 759 mmHg 75%
    05:00 -9°C° 0 mm 9 mps 759 mmHg 75%
    06:00 -9°C° 0 mm 9 mps 759 mmHg 74%
    07:00 -9°C° 0 mm 9 mps 759 mmHg 73%
    08:00 -9°C° 0 mm 9 mps 760 mmHg 73%
    09:00 -8°C° 0 mm 9 mps 760 mmHg 71%
    10:00 -8°C° 0 mm 9 mps 760 mmHg 69%
    11:00 -8°C° 0 mm 9 mps 760 mmHg 67%
    12:00 -8°C° 0 mm 9 mps 760 mmHg 67%
    13:00 -8°C° 0 mm 9 mps 760 mmHg 67%
    14:00 -8°C° 0 mm 9 mps 760 mmHg 67%
    15:00 -8°C° 0 mm 9 mps 760 mmHg 69%
    16:00 -9°C° 0 mm 9 mps 760 mmHg 71%
    17:00 -9°C° 0 mm 9 mps 760 mmHg 72%
    18:00 -9°C° 0 mm 9 mps 760 mmHg 73%
    19:00 -9°C° 0 mm 9 mps 760 mmHg 74%
    20:00 -9°C° 0 mm 10 mps 760 mmHg 75%
    21:00 -9°C° 0 mm 10 mps 760 mmHg 75%
    22:00 -9°C° 0 mm 10 mps 759 mmHg 75%
    23:00 -9°C° 0 mm 10 mps 759 mmHg 75%
    Show more